YAOGAN 18 (39363 NORAD) Tracking and Keplerian Element Data

This shows tracking and keplerian element data for the satellite.

Feedback or suggestion? Click here.




ElementValue
Catalog39363
NameYAOGAN 18
Epoch Orbit27910
Epoch Day315.90704479
Epoch Year2018
RAAN15.4922
Inclination97.3301
Eccentricity0.0001552
Argument of Perigee107.1583
Mean Anonmoly353.6053
Mean Motion15.1799994
Decay Rate7.07E-06
L11 39363U 13059A 18315.90704479 .00000707 00000-0 37947-4 0 9998
L22 39363 97.3301 15.4922 0001552 107.1583 353.6053 15.17999940279108

Live tracking and technical data element details for YAOGAN 18 (NORAD 39363). YAOGAN 18 can be tracked NOW for your location showing map with azimuth and elevation plus other details from your city location.

Track the satellite on the map from your city or location and see movement details for azimuth, elevation, latitude, longitude, range, height, and movement on the map or in text.







IsCatalogInMostPopularTable: catalog: 39363, numindb: 114
Update: records affected: 1



GetName: 39363 YAOGAN 18

Hit Count: updated at: Mon, 12 Nov 2018 17:34:07 GMT